Le nostre stazioni meteo in Italia

Pubblicità
Il mio iltempo24.it
Grenoble/St.Geoirs, Francia (7486): Temperatura & dewpoint: 13.06.2019 01:00:00 - 19.06.2019 01:00:00 (CEST)Grenoble/St.Geoirs, Francia (7486): Temperatura 5cm: 13.06.2019 01:00:00 - 19.06.2019 01:00:00 (CEST)Grenoble/St.Geoirs, Francia (7486): Temperatura -20cm & Temperatura -100cm: 13.06.2019 01:00:00 - 19.06.2019 01:00:00 (CEST)Grenoble/St.Geoirs, Francia (7486): velocità del vento & gusts: 13.06.2019 01:00:00 - 19.06.2019 01:00:00 (CEST)Grenoble/St.Geoirs, Francia (7486): direzione del vento: 13.06.2019 01:00:00 - 19.06.2019 01:00:00 (CEST)Grenoble/St.Geoirs, Francia (7486): reduced air pressure: 13.06.2019 01:00:00 - 19.06.2019 01:00:00 (CEST)Grenoble/St.Geoirs, Francia (7486): visibility: 13.06.2019 01:00:00 - 19.06.2019 01:00:00 (CEST)Grenoble/St.Geoirs, Francia (7486): ore di luce: 13.06.2019 01:00:00 - 19.06.2019 01:00:00 (CEST)Grenoble/St.Geoirs, Francia (7486): precipitazioni: 13.06.2019 01:00:00 - 19.06.2019 01:00:00 (CEST)
Data & Tempo tt [°C] td [°C] tt 5cm [°C] tt -20cm [°C] tt -100cm [°C] ff [km/h] ff [kn] fx [km/h] fx [kn] dd ppp [hPa] vv [km] sd [min] rr [mm]
19.06.2019 01:00:00 20,2 7,5 17,1 19,8 15,6 12 7 30 16 SSO 1013,6 55 0 0,0
19.06.2019 00:00:00 20,6 8,6 18,5 19,8 15,6 16 9 33 18 SSO 1013,9 43 0 0,0
18.06.2019 23:00:00 22,1 8,2 19,8 19,8 15,6 15 8 37 20 SSO 1013,5 41 0 0,0
18.06.2019 22:00:00 23,9 6,6 19,6 19,8 15,6 16 9 39 21 SO 1012,9 40 3 0,0
18.06.2019 21:00:00 23,6 9,9 21,6 19,7 15,6 13 7 26 14 O 1012,6 32 60 0,0
18.06.2019 20:00:00 26,0 8,9 26,4 19,6 15,6 16 9 32 17 OSO 1012,0 49 60 0,0
18.06.2019 19:00:00 27,4 11,4 27,2 19,5 15,6 18 10 27 15 SO 1011,8 53 52 0,0
18.06.2019 18:00:00 25,9 13,1 26,4 19,3 15,6 6 3 29 16 ONO 1012,2 34 0 0,0
18.06.2019 17:00:00 27,2 12,8 27,8 19,1 15,6 18 10 36 19 SSO 1012,2 30 4 0,0
18.06.2019 16:00:00 28,4 15,0 30,6 18,9 15,6 18 10 29 15 SO 1012,0 19 27 0,0
18.06.2019 15:00:00 28,2 15,8 32,8 18,7 15,6 16 9 35 19 SO 1012,2 24 58 0,0
18.06.2019 14:00:00 27,2 16,2 29,7 18,6 15,5 7 4 20 11 ONO 1013,0 30 42 0,0
18.06.2019 13:00:00 26,1 16,1 30,9 18,6 15,6 7 4 14 8 O 1013,6 19 46 0,0
18.06.2019 12:00:00 25,6 16,4 26,4 18,5 15,5 6 3 22 12 ENE 1013,8 37 55 0,0
18.06.2019 11:00:00 23,9 15,7 25,2 18,6 15,5 14 8 27 14 E 1014,0 20 55 0,0
18.06.2019 10:00:00 22,0 14,9 20,7 18,7 15,5 16 9 27 14 ENE 1014,5 19 49 0,0
18.06.2019 09:00:00 20,0 14,1 20,8 18,7 15,5 21 11 31 17 E 1015,4 18 55 0,0
18.06.2019 08:00:00 18,4 14,1 17,6 18,8 15,5 21 11 31 17 E 1015,6 19 57 0,0
18.06.2019 07:00:00 16,0 14,0 13,1 19,0 15,5 14 8 24 13 E 1015,9 21 44 0,0
18.06.2019 06:00:00 13,9 12,6 12,9 19,0 15,5 15 8 19 11 E 1016,3 18 0 0,0
18.06.2019 05:00:00 14,1 12,8 12,1 19,1 15,5 15 8 19 10 E 1016,3 16 0 0,2
18.06.2019 04:00:00 14,7 12,9 13,2 19,2 15,5 11 6 19 11 E 1016,1 20 0 0,0
18.06.2019 03:00:00 14,8 12,8 13,2 19,3 15,5 14 8 26 14 E 1016,2 23 0 0,0
18.06.2019 02:00:00 15,6 13,6 13,9 19,4 15,5 14 8 21 12 ENE 1016,3 25 0 0,0
18.06.2019 01:00:00 15,7 13,4 13,8 19,4 15,5 13 7 20 11 E 1016,6 23 0 0,0
18.06.2019 00:00:00 16,0 13,3 12,7 19,5 15,5 11 6 18 10 E 1016,2 23 0 0,0
17.06.2019 23:00:00 16,7 14,0 14,4 19,3 15,4 13 7 21 11 ENE 1016,0 25 0 0,0
17.06.2019 22:00:00 20,4 14,5 14,5 19,3 15,4 6 4 14 8 ESE 1015,5 23 3 0,0
17.06.2019 21:00:00 22,7 15,8 21,7 19,2 15,5 8 5 14 7 NE 1014,9 20 60 0,0
17.06.2019 20:00:00 25,2 16,6 29,8 19,0 15,4 8 4 16 9 N 1014,0 33 60 0,0
17.06.2019 19:00:00 25,5 15,2 31,3 18,8 15,4 9 5 16 9 N 1014,0 20 60 0,0
17.06.2019 18:00:00 26,4 15,4 33,4 18,5 15,4 7 4 15 8 NNO 1013,8 29 60 0,0
17.06.2019 17:00:00 26,6 14,0 33,9 18,2 15,4 5 3 19 10 SSO 1014,3 35 60 0,0
17.06.2019 16:00:00 25,9 15,3 32,4 18,0 15,4 6 4 23 12 NNO 1014,8 19 60 0,0
17.06.2019 15:00:00 25,2 14,6 32,6 17,8 15,4 7 4 16 9 SO 1015,5 19 60 0,0
17.06.2019 14:00:00 24,0 13,5 32,5 17,6 15,4 7 4 20 11 N 1015,8 35 60 0,0
17.06.2019 13:00:00 22,9 14,2 28,9 17,5 15,4 9 5 21 12 N 1016,2 30 60 0,0
17.06.2019 12:00:00 22,2 13,5 26,9 17,5 15,4 12 6 24 13 NE 1016,7 42 60 0,0
17.06.2019 11:00:00 20,9 12,8 26,1 17,5 15,4 16 9 25 14 NNE 1016,9 16 60 0,0
17.06.2019 10:00:00 18,6 13,2 24,3 17,6 15,4 8 4 17 9 SO 1017,6 15 60 0,0
17.06.2019 09:00:00 15,8 12,4 21,9 17,7 15,4 5 3 11 6 ONO 1018,1 11 60 0,0
17.06.2019 08:00:00 13,5 12,1 13,2 17,8 15,4 3 1 8 4 S 1018,4 20 60 0,0
17.06.2019 07:00:00 11,8 11,0 8,3 17,9 15,4 6 3 13 7 ENE 1018,5 6 44 0,0
17.06.2019 06:00:00 9,6 8,5 7,5 18,1 15,4 10 5 12 7 E 1019,1 5 0 0,0
17.06.2019 05:00:00 10,4 9,3 7,2 18,1 15,4 8 4 10 5 SE 1019,1 4,7 0 0,0
17.06.2019 04:00:00 10,9 9,7 6,9 18,2 15,4 5 3 10 5 SE 1019,1 10 0 0,0
17.06.2019 03:00:00 11,3 9,9 7,8 18,3 15,4 8 4 10 5 ESE 1019,3 12 0 0,0
17.06.2019 02:00:00 11,9 10,1 8,5 18,4 15,4 3 1 6 3 ESE 1019,2 14 0 0,0
17.06.2019 01:00:00 13,4 10,6 9,5 18,5 15,4 3 1 8 4 E 1019,1 21 0 0,0
17.06.2019 00:00:00 15,5 11,3 10,0 18,5 15,4 4 2 11 6 ONO 1018,8 24 0 0,0
16.06.2019 23:00:00 15,6 11,6 10,4 18,5 15,4 5 3 13 7 NO 1019,0 24 0 0,0
16.06.2019 22:00:00 17,0 12,3 14,1 18,4 15,3 10 5 22 12 NNO 1018,5 21 2 0,0
16.06.2019 21:00:00 19,5 12,5 19,2 18,3 15,4 12 7 29 16 NNO 1018,1 11 60 0,0
16.06.2019 20:00:00 20,8 13,2 23,7 18,2 15,3 18 10 34 19 NNO 1017,9 9 60 0,0
16.06.2019 19:00:00 21,6 13,2 25,8 18,0 15,3 22 12 36 19 NNO 1018,0 9 60 0,0
16.06.2019 18:00:00 21,8 13,4 26,7 17,9 15,3 18 10 35 19 NO 1018,3 11 57 0,0
16.06.2019 17:00:00 21,9 13,8 26,1 17,7 15,3 19 11 34 19 NNO 1018,4 12 51 0,0
16.06.2019 16:00:00 21,6 13,2 24,7 17,5 15,3 18 10 35 19 N 1018,9 14 44 0,0
16.06.2019 15:00:00 20,9 12,8 23,8 17,4 15,3 17 9 34 18 NNO 1019,2 16 37 0,0
16.06.2019 14:00:00 20,2 12,7 23,5 17,2 15,3 21 11 35 19 NNO 1019,7 19 39 0,0
16.06.2019 13:00:00 19,1 12,4 21,7 17,2 15,3 21 11 33 18 NNO 1020,4 19 36 0,0
16.06.2019 12:00:00 18,9 11,9 23,0 17,2 15,3 17 9 32 17 NNO 1020,7 21 44 0,0
16.06.2019 11:00:00 17,6 11,4 20,2 17,2 15,3 20 11 35 19 N 1021,1 22 16 0,0
16.06.2019 10:00:00 16,8 11,5 21,4 17,2 15,3 17 9 34 18 N 1021,4 12 54 0,0
16.06.2019 09:00:00 16,2 11,1 19,3 17,3 15,3 12 7 24 13 N 1021,6 13 57 0,0
16.06.2019 08:00:00 14,5 11,8 12,6 17,4 15,3 7 4 20 11 N 1021,8 12 15 0,0
16.06.2019 07:00:00 12,2 11,3 9,8 17,5 15,3 9 5 16 9 N 1022,1 19 7 0,0
16.06.2019 06:00:00 11,6 10,7 9,1 17,6 15,3 6 3 10 5 SE 1022,2 10 0 0,0
16.06.2019 05:00:00 12,3 11,4 11,2 17,7 15,3 3 1 8 4 NNO 1021,9 10 0 0,0
16.06.2019 04:00:00 12,0 11,1 11,5 17,8 15,3 4 2 9 5 SE 1022,0 11 0 0,0
16.06.2019 03:00:00 11,3 10,5 8,4 17,9 15,3 5 3 10 6 N 1022,3 12 0 0,0
16.06.2019 02:00:00 10,4 9,3 9,1 17,9 15,3 8 4 10 5 E 1022,4 11 0 0,0
16.06.2019 01:00:00 11,5 10,6 7,9 18,0 15,3 4 2 8 4 E 1022,2 8 0 0,0
16.06.2019 00:00:00 12,0 10,9 9,0 18,1 15,3 4 2 10 5 S 1022,0 28 0 0,0
15.06.2019 23:00:00 12,4 11,3 7,9 18,1 15,2 5 3 8 4 E 1021,5 18 0 0,0
15.06.2019 22:00:00 13,1 10,6 8,9 18,1 15,2 5 3 10 6 E 1020,6 9 1 0,0
15.06.2019 21:00:00 15,7 11,9 15,9 18,1 15,2 4 2 15 8 E 1019,7 56 60 0,0
15.06.2019 20:00:00 17,4 11,4 18,9 18,1 15,2 8 4 15 8 ENE 1019,1 48 52 0,0
15.06.2019 19:00:00 16,0 12,5 17,0 18,1 15,2 8 4 29 16 NE 1019,5 28 28 0,0
15.06.2019 18:00:00 15,5 12,6 13,4 18,1 15,2 24 13 37 20 E 1019,6 10 23 1,0
15.06.2019 17:00:00 13,9 11,9 13,1 18,0 15,2 14 7 55 30 ESE 1019,7 6 0 2,8
15.06.2019 16:00:00 15,0 13,2 14,4 17,9 15,2 35 19 54 29 ONO 1018,6 18 0 -
15.06.2019 15:00:00 18,2 14,3 16,4 17,8 15,2 32 17 52 28 NO 1014,2 6 7 0,6
15.06.2019 14:00:00 20,8 14,0 26,1 17,6 15,2 13 7 24 13 NNO 1014,8 32 15 0,0
15.06.2019 13:00:00 20,7 13,6 25,5 17,6 15,2 12 7 20 11 NNE 1015,3 32 7 0,0
15.06.2019 12:00:00 19,8 13,9 22,6 17,5 15,2 12 7 26 14 N 1016,4 40 14 0,0
15.06.2019 11:00:00 19,2 14,0 23,4 17,5 15,2 12 6 22 12 NNE 1016,8 19 40 0,0
15.06.2019 10:00:00 18,3 15,4 19,7 17,6 15,2 5 3 10 6 NNO 1016,7 27 13 0,0
15.06.2019 09:00:00 16,2 14,6 15,3 17,6 15,1 3 2 11 6 NNO 1017,1 32 4 0,0
15.06.2019 08:00:00 15,2 14,1 14,5 17,7 15,2 3 1 8 4 OSO 1016,9 6 0 1,0
15.06.2019 07:00:00 15,0 13,7 14,4 17,7 15,1 4 2 15 8 NNE 1016,0 8 0 0,4
15.06.2019 06:00:00 15,2 13,7 14,5 17,7 15,1 7 4 15 8 NE 1015,8 18 0 0,0
15.06.2019 05:00:00 15,6 14,5 14,9 17,8 15,2 4 2 10 5 SO 1015,1 13 0 0,0
15.06.2019 04:00:00 15,5 14,2 15,0 17,9 15,2 6 4 16 9 NNE 1015,1 19 0 0,0
15.06.2019 03:00:00 15,7 14,1 15,0 17,9 15,1 6 4 13 7 NE 1015,2 28 0 0,2
15.06.2019 02:00:00 16,6 13,7 15,6 17,9 15,1 6 3 18 10 NNO 1015,1 34 0 0,0
15.06.2019 01:00:00 17,0 13,3 16,1 18,0 15,1 8 4 17 9 ONO 1014,5 36 0 0,0
15.06.2019 00:00:00 16,8 13,5 14,6 18,0 15,1 8 4 17 9 OSO 1013,3 34 0 0,0
14.06.2019 23:00:00 16,8 12,7 14,0 17,9 15,1 4 2 22 12 O 1012,2 39 0 0,0
14.06.2019 22:00:00 17,3 13,0 15,5 17,9 15,1 7 4 21 11 NNO 1011,5 37 0 0,0
14.06.2019 21:00:00 18,3 14,4 17,8 17,8 15,1 13 7 27 15 ONO 1010,1 25 30 0,0
14.06.2019 20:00:00 20,4 16,0 21,1 17,7 15,1 14 8 28 15 NO 1008,8 22 33 0,0
14.06.2019 19:00:00 21,8 14,2 21,8 17,5 15,1 16 9 27 14 ENE 1007,4 17 3 0,0
14.06.2019 18:00:00 22,4 13,2 24,1 17,4 15,1 11 6 38 20 NNE 1008,4 20 14 0,0
14.06.2019 17:00:00 23,0 14,3 26,2 17,3 15,1 12 6 29 15 N 1009,8 12 39 0,0
14.06.2019 16:00:00 23,0 14,0 27,6 17,2 15,1 17 9 33 18 NNE 1010,4 12 60 0,0
14.06.2019 15:00:00 22,1 14,5 23,9 17,1 15,1 17 9 34 18 E 1011,0 11 32 0,0
14.06.2019 14:00:00 20,9 14,3 22,1 17,1 15,1 19 10 34 18 ENE 1012,3 12 43 0,0
14.06.2019 13:00:00 17,8 15,2 15,4 17,2 15,1 9 5 21 11 NE 1014,0 15 15 0,4
14.06.2019 12:00:00 16,8 12,7 14,9 17,2 15,1 7 4 23 12 NE 1014,2 24 0 0,0
14.06.2019 11:00:00 15,0 12,3 13,7 17,3 15,1 19 10 35 19 E 1015,2 21 0 0,2
14.06.2019 10:00:00 14,3 12,0 13,0 17,3 15,1 15 8 27 14 SE 1017,6 15 0 1,6
14.06.2019 09:00:00 14,7 11,8 14,0 17,4 15,1 15 8 24 13 E 1017,1 22 0 0,0
14.06.2019 08:00:00 14,4 11,4 13,5 17,5 15,1 13 7 24 13 E 1015,8 19 0 0,0
14.06.2019 07:00:00 14,5 9,3 13,0 17,6 15,1 8 5 18 10 SE 1014,3 20 0 0,0
14.06.2019 06:00:00 13,9 10,3 12,7 17,7 15,0 9 5 14 8 NE 1013,7 31 0 0,0
14.06.2019 05:00:00 14,2 9,4 12,7 17,8 15,1 10 5 13 7 ENE 1013,4 37 0 0,0
14.06.2019 04:00:00 14,4 9,0 13,0 17,8 15,0 11 6 14 8 E 1013,8 35 0 0,0
14.06.2019 03:00:00 15,2 9,3 13,6 17,9 15,0 10 5 16 8 E 1013,9 35 0 0,0
14.06.2019 02:00:00 16,0 9,6 14,3 18,0 15,0 8 5 19 10 E 1014,0 37 0 0,0
14.06.2019 01:00:00 18,3 7,4 16,3 18,0 15,0 9 5 22 12 S 1014,2 45 0 0,0
14.06.2019 00:00:00 18,4 8,1 12,9 18,0 15,1 13 7 22 12 SSO 1013,9 40 0 0,0
13.06.2019 23:00:00 16,7 8,1 12,6 18,0 15,0 2 1 13 7 N 1014,4 41 0 0,0
13.06.2019 22:00:00 17,5 9,6 14,1 18,0 15,1 8 5 17 9 N 1013,5 44 1 0,0
13.06.2019 21:00:00 22,4 8,5 20,8 17,8 15,0 5 3 12 6 O 1012,4 39 60 0,0
13.06.2019 20:00:00 23,3 7,8 23,5 17,6 15,0 9 5 35 19 OSO 1011,9 58 52 0,0
13.06.2019 19:00:00 25,0 8,0 27,5 17,4 15,0 19 10 34 19 SO 1011,5 11 60 0,0
13.06.2019 18:00:00 25,2 8,2 28,3 17,2 15,0 18 10 33 18 SSO 1011,7 13 60 0,0
13.06.2019 17:00:00 25,1 8,6 29,3 16,9 15,0 14 7 29 16 SO 1012,0 15 60 0,0
13.06.2019 16:00:00 24,4 9,9 28,8 16,7 15,1 16 8 30 16 SSO 1012,7 15 60 0,0
13.06.2019 15:00:00 23,5 7,6 27,7 16,4 15,0 16 9 31 17 OSO 1013,2 20 60 0,0
13.06.2019 14:00:00 22,9 6,6 29,4 16,2 15,0 11 6 36 19 OSO 1013,4 35 60 0,0
13.06.2019 13:00:00 21,7 8,9 27,2 16,1 15,0 7 4 22 12 S 1013,8 30 60 0,0
13.06.2019 12:00:00 20,5 7,5 26,7 16,1 15,0 8 5 17 9 ENE 1014,7 29 60 0,0
13.06.2019 11:00:00 19,8 8,8 24,1 16,2 15,0 4 2 12 7 NE 1015,3 19 60 0,0
13.06.2019 10:00:00 17,7 9,3 19,7 16,2 15,0 7 4 18 10 ENE 1015,4 20 60 0,0
13.06.2019 09:00:00 15,1 9,0 16,2 16,4 15,1 14 8 26 14 E 1015,8 28 60 0,0
13.06.2019 08:00:00 12,6 8,7 12,2 16,5 15,0 14 8 21 11 E 1016,0 52 60 0,0
13.06.2019 07:00:00 8,9 7,0 4,9 16,6 15,0 10 5 16 9 E 1016,6 50 44 0,0
13.06.2019 06:00:00 6,0 4,8 3,9 16,7 15,0 14 8 15 8 E 1016,9 35 0 0,0
13.06.2019 05:00:00 7,3 5,6 3,3 16,9 15,0 4 2 14 8 E 1016,7 32 0 0,0
13.06.2019 04:00:00 7,9 5,9 6,1 17,0 15,1 11 6 16 9 E 1016,6 39 0 0,0
13.06.2019 03:00:00 7,8 6,3 5,4 17,1 15,0 11 6 15 8 E 1016,8 38 0 0,0
13.06.2019 02:00:00 8,8 6,9 6,9 17,1 15,1 9 5 12 7 E 1016,9 40 0 0,0
13.06.2019 01:00:00 9,4 7,0 6,7 17,2 15,1 10 6 13 7 E 1016,4 46 0 0,0

tt = Temperatura
td = dewpoint
tt 5cm = Temperatura 5cm
tt -20cm = Temperatura -20cm
tt -100cm = Temperatura -100cm
ff = velocità del vento
fx = gusts
dd = direzione del vento
ppp = reduced air pressure
vv = visibility
sd = ore di luce
rr = precipitazioni

Stazioni seguenti

WeatherPro
AMSI
MeteoEarth